Location: ???????
(55.4362°N, 38.1183°E)
Time: 20:03:09
(UTC+00:00)

USA 267 - Pass Details

Date: 26 October 2021
Orbit: 1101 x 1107 km, 123.0° (Epoch: 27 November)

Event Time Altitude Azimuth Distance (km) Brightness Sun altitude
Rises 16:26:22 0° 162° (SSE) 3,907 5.9 -21.0°
Reaches altitude 10° 16:29:20 10° 175° (S) 2,953 5.4 -21.4°
Maximum altitude 16:34:37 26° 230° (SW) 2,019 5.0 -22.2°
Drops below altitude 10° 16:39:56 10° 284° (WNW) 2,964 6.6 -22.9°
Sets 16:42:55 0° 297° (WNW) 3,925 7.4 -23.3°
